Location: Observatoire
(46.1952°N, 5.3391°E)
Time: 20:13:30
(UTC+01:00)

Altair - Pass Details

Date: 22 February 2026
Orbit: 1502 x 1682 km, 47.2° (Epoch: 10 March)

Event Time Altitude Azimuth Distance (km) Brightness Sun altitude
Rises 04:19:14 0° 232° (SW) 4,625 - -33.3°
Reaches altitude 10° 04:22:15 10° 229° (SW) 3,646 - -32.9°
Exits shadow 04:29:26 55° 197° (SSW) 1,773 7.5 -31.7°
Maximum altitude 04:31:15 64° 151° (SSE) 1,650 7.5 -31.4°
Drops below altitude 10° 04:40:27 10° 73° (ENE) 3,730 10.4 -29.9°
Sets 04:43:35 0° 70° (ENE) 4,737 11.3 -29.4°
